EW0772 Weather Reports


time (UTC)temp
C
wind
direction
speed
KPH
gust
KPH
rain 1hr
cm
rain 24hr
cm
rain mn
cm
humidity
%
barometer
mb
20260507044506 23 165 0.0 0.0 0.00 0.00 0.00 33 1012.5
20260507043004 23 169 0.0 0.0 0.00 0.00 0.00 33 1012.5
20260507041502 24 190 0.0 0.0 0.00 0.00 0.00 32 1012.6
20260507040001 25 105 0.0 0.0 0.00 0.00 0.00 32 1012.3
20260507034620 25 83 0.0 0.0 0.00 0.00 0.00 32 1012.1
20260507033108 25 74 0.0 3.2 0.00 0.00 0.00 32 1011.9
20260507031559 25 57 0.0 0.0 0.00 0.00 0.00 32 1011.8
20260507030104 25 34 0.0 0.0 0.00 0.00 0.00 31 1011.5
20260507024604 26 36 0.0 0.0 0.00 0.00 0.00 30 1011.3
20260507023057 26 24 0.0 0.0 0.00 0.00 0.00 28 1011.1
20260507021607 27 24 0.0 6.4 0.00 0.00 0.00 27 1010.9
20260507020056 27 340 0.0 0.0 0.00 0.00 0.00 27 1010.7
20260507014556 28 294 0.0 3.2 0.00 0.00 0.00 24 1010.8
20260507013114 28 324 0.0 9.7 0.00 0.00 0.00 23 1010.8
20260507011557 29 309 0.0 11.3 0.00 0.00 0.00 23 1010.7
20260507010055 29 37 0.0 6.4 0.00 0.00 0.00 23 1010.7
20260507004554 29 292 1.6 14.5 0.00 0.00 0.00 23 1010.6
20260507003053 29 17 1.6 14.5 0.00 0.00 0.00 23 1010.6
20260507001608 29 325 0.0 12.9 0.00 0.00 0.00 22 1010.5
20260507000052 29 296 0.0 19.3 0.00 0.00 0.00 22 1010.5
20260506234559 29 316 8.0 24.1 0.00 0.00 0.00 21 1010.5
20260506233052 30 318 4.8 16.1 0.00 0.00 0.00 22 1010.6
20260506231552 29 275 0.0 8.0 0.00 0.00 0.00 21 1010.7
20260506230047 29 294 0.0 6.4 0.00 0.00 0.00 21 1010.7
20260506224600 29 329 0.0 16.1 0.00 0.00 0.00 22 1011.0
20260506223043 29 301 0.0 8.0 0.00 0.00 0.00 22 1011.2
20260506221540 29 300 3.2 19.3 0.00 0.00 0.00 23 1011.5
20260506220045 29 308 0.0 6.4 0.00 0.00 0.00 23 1011.8
20260506214535 28 298 0.0 8.0 0.00 0.00 0.00 24 1012.1
20260506213032 28 321 1.6 20.9 0.00 0.00 0.00 24 1012.3
20260506211531 28 317 0.0 8.0 0.00 0.00 0.00 26 1012.4
20260506210030 28 325 0.0 8.0 0.00 0.00 0.00 25 1012.6
20260506204528 28 294 0.0 8.0 0.00 0.00 0.00 25 1012.8
20260506203027 28 306 0.0 4.8 0.00 0.00 0.00 27 1012.9
20260506201527 28 334 0.0 12.9 0.00 0.00 0.00 26 1013.2
20260506200026 27 269 0.0 0.0 0.00 0.00 0.00 27 1013.3
20260506194533 28 299 0.0 1.6 0.00 0.00 0.00 26 1013.6
20260506193024 27 79 0.0 0.0 0.00 0.00 0.00 29 1013.9
20260506191521 27 73 0.0 0.0 0.00 0.00 0.00 29 1014.1
20260506190020 26 161 0.0 4.8 0.00 0.00 0.00 30 1014.3
20260506184517 25 69 0.0 0.0 0.00 0.00 0.00 31 1014.5
20260506183018 25 81 0.0 0.0 0.00 0.00 0.00 32 1014.7
20260506181516 25 94 0.0 0.0 0.00 0.00 0.00 33 1014.8
20260506180016 25 106 0.0 0.0 0.00 0.00 0.00 31 1014.9
20260506174513 25 94 0.0 4.8 0.00 0.00 0.00 33 1015.0
20260506173012 25 100 0.0 0.0 0.00 0.00 0.00 34 1015.0
20260506171508 23 115 0.0 0.0 0.00 0.00 0.00 35 1015.0
20260506170005 22 150 0.0 3.2 0.00 0.00 0.00 40 1015.0
20260506164501 22 38 0.0 8.0 0.00 0.00 0.00 39 1015.1
20260506163058 21 115 0.0 22.5 0.00 0.00 0.00 41 1015.2
20260506161555 21 105 0.0 16.1 0.00 0.00 0.00 42 1015.1
20260506160109 20 86 4.8 22.5 0.00 0.00 0.00 1015.0
20260506154550 -17 0.0 0.0 0.00 0.00 0.00 1015.0
20260506153044 -17 0.0 0.0 0.00 0.00 0.00 1014.9
20260506151544 -17 0.0 0.0 0.00 0.00 0.00 1014.9
20260506150036 -17 0.0 0.0 0.00 0.00 0.00 1015.0
20260506144531 -17 0.0 0.0 0.00 0.00 0.00 1014.9
20260506143033 -17 0.0 0.0 0.00 0.00 0.00 1014.8
20260506141522 -17 0.0 0.0 0.00 0.00 0.00 1014.7
20260506140019 -17 0.0 0.0 0.00 0.00 0.00 1014.6
20260506134515 -17 0.0 0.0 0.00 0.00 0.00 1014.3
20260506133010 -17 0.0 0.0 0.00 0.00 0.00 1014.2
20260506131516 -17 0.0 0.0 0.00 0.00 0.00 1014.1
20260506130001 -17 0.0 0.0 0.00 0.00 0.00 1013.8
20260506124601 -17 0.0 0.0 0.00 0.00 0.00 1013.6
20260506123052 -17 0.0 0.0 0.00 0.00 0.00 1013.5
20260506121547 -17 0.0 0.0 0.00 0.00 0.00 1013.3
20260506120043 -17 0.0 0.0 0.00 0.00 0.00 1013.1
20260506114538 -17 0.0 0.0 0.00 0.00 0.00 1013.1
20260506113034 -17 0.0 0.0 0.00 0.00 0.00 1013.0
20260506111530 -17 0.0 0.0 0.00 0.00 0.00 1013.0
20260506110026 -17 0.0 0.0 0.00 0.00 0.00 1012.9
20260506104521 -17 0.0 0.0 0.00 0.00 0.00 1012.9
20260506103025 -17 0.0 0.0 0.00 0.00 0.00 1012.9
20260506101512 -17 0.0 0.0 0.00 0.00 0.00 1012.8
20260506100010 -17 0.0 0.0 0.00 0.00 0.00 1012.7
20260506094503 17 126 11.3 37.0 0.00 0.00 0.00 50 1012.8
20260506093058 17 112 19.3 37.0 0.00 0.00 0.00 50 1012.8
20260506091558 17 142 11.3 38.6 0.00 0.00 0.00 50 1012.8
20260506090056 17 115 24.1 43.5 0.00 0.00 0.00 49 1012.8
20260506084553 18 113 19.3 43.5 0.00 0.00 0.00 48 1012.8
20260506083052 18 119 22.5 37.0 0.00 0.00 0.00 48 1012.9
20260506081555 18 142 25.7 43.5 0.00 0.00 0.00 48 1012.8
20260506073043 18 151 25.7 40.2 0.00 0.00 0.00 47 1012.9
20260506071546 18 115 24.1 43.5 0.00 0.00 0.00 46 1012.8
20260506061533 18 140 25.7 41.8 0.00 0.00 0.00 45 1012.1